Tracking 19564 objects as of 18-Mar-2019
HD Live streaming from Space Station
objects crossing your sky now

DMSP 5D-2 F8 (USA 26)

Track DMSP 5D-2 F8 (USA 26) now!
10-day predictions
DMSP 5D-2 F8 (USA 26) is classified as:


NORAD ID: 18123
Int'l Code: 1987-053A
Perigee: 827.6 km
Apogee: 846.3 km
Inclination: 98.7 °
Period: 101.5 minutes
Semi major axis: 7207 km
RCS: 2.6045 m2 (large)
Launch date: June 20, 1987
Source: United States (US)
Launch site: AIR FORCE WESTERN TEST RANGE (AFWTR)
aabbcc
Your satellite tracking list
Your tracking list is empty




NASA's NSSDC Master Catalog

Two Line Element Set (TLE):
1 18123U 87053A   19076.88702561 +.00000024 +00000-0 +32478-4 0  9992
2 18123 098.7279 266.7690 0012910 211.8133 148.2264 14.18681722641241
Source of the keplerian elements: AFSPC